Regional Weather Roundup
Issued by NWS Huntsville, AL

Home | Current Version | Previous Version | Text Only | Print | Product List | Glossary On
Versions: 1 2 3 4 5 6 7 8 9 10 11 12 13 14 15 16 17 18 19 20 21 22 23 24 25 26 27
000
ASUS44 KHUN 182310
RWRHUN

WEATHER ROUNDUP FOR THE TENNESSEE VALLEY
NATIONAL WEATHER SERVICE HUNTSVILLE AL
600 PM CDT FRI AUG 18 2017

ALZ001>004-190000-
NORTHWEST ALABAMA

CITY           SKY/WX    TMP DP  RH WIND       PRES   REMARKS
COURTLAND HCN    N/A     88 N/A N/A W8          N/A
RUSSELLVILLE     N/A     84 N/A N/A MISG        N/A
SHOALS AIRPORT SUNNY     87  65  47 NW7       29.98S
SHOALS TVA RES   N/A     88 N/A N/A MISG        N/A
$$

ALZ005>007-016-190000-
NORTH CENTRAL ALABAMA

CITY           SKY/WX    TMP DP  RH WIND       PRES   REMARKS
CULLMAN AG STN   N/A     86 N/A N/A NW3         N/A
DECATUR AP     SUNNY     86  67  52 NW8       29.98R
HUNTSVILLE AP  MOSUNNY   88  67  49 NW8       29.97S HX  91
MERIDIANVILLE  SUNNY     86  61  42 CALM      29.98S
REDSTONE ARSN  SUNNY     87  64  46 N8        29.96S
VINEMONT AP    FAIR     N/A N/A N/A CALM      30.01S
$$

ALZ008>010-190000-
NORTHEAST ALABAMA

CITY           SKY/WX    TMP DP  RH WIND       PRES   REMARKS
ALBERTVILLE    MOSUNNY   86  72  62 NW6       29.99R HX  92
FORT PAYNE     SUNNY     86  59  39 NW3       29.98R
SCOTTSBORO AP  SUNNY     86  64  48 NW6       29.98R
SCOTTSBORO HCN   N/A     86 N/A N/A MISG        N/A
VALLEY HEAD      N/A     84 N/A N/A MISG        N/A
$$

TNZ076-096-097-190000-
SOUTHEASTERN MIDDLE TENNESSEE

CITY           SKY/WX    TMP DP  RH WIND       PRES   REMARKS
TULLAHOMA      SUNNY     82  63  51 W7        30.00S
WINCHESTER     SUNNY     84  64  51 NW6       29.98S
$$

...SURROUNDING SITES...

CITY           SKY/WX    TMP DP  RH WIND       PRES   REMARKS
ATLANTA        MOSUNNY   87  67  51 W9        29.97S HX  90
ANNISTON       MOSUNNY   88  67  49 W7        29.97S HX  91
BIRMINGHAM     MOSUNNY   88  65  46 W10       30.00S HX  90
CHATTANOOGA    MOSUNNY   87  62  43 W8        29.96R
DALTON         NOT AVBL
GADSDEN        SUNNY     89  66  46 NW6       29.97S HX  91
GOLDEN TRNGL   MOSUNNY   91  72  52 NW5       29.93S HX  98
HALEYVILLE     FAIR      85  69  58 NW7       30.01S
JACKSON TN     SUNNY     87  63  44 VRB5      29.97S
MEMPHIS        MOSUNNY   90  66  45 NW5       29.96F HX  92
NASHVILLE      MOSUNNY   86  62  44 W8        29.97S
OXFORD MS      FAIR      88  66  48 CALM      29.99S HX  90
ROME           SUNNY     89  66  46 NW8       29.96R HX  91
SAVANNAH       SUNNY     86  64  48 NW3       29.96S
SELMER         SUNNY     86  63  45 CALM      29.98S
TUPELO         SUNNY     91  64  40 VRB5      29.96S HX  92
TUSCALOOSA     SUNNY     90  69  50 NW6       29.97S HX  94
$$

...GULF COAST WEATHER...

CITY           SKY/WX    TMP DP  RH WIND       PRES   REMARKS
GULFPORT       MOSUNNY   92  77  61 W6        29.97R HX 105
PASCAGOULA     PTSUNNY   78  73  84 SW7       30.00R THUNDER
MOBILE         CLOUDY    84  74  71 SW6       29.99F HX  91
GULF SHORES    CLOUDY    83  77  83 CALM      29.98S THUNDER HX  92
PENSACOLA      PTSUNNY   82  76  81 W3        29.96S
DESTIN         PTSUNNY   87  75  67 VRB5      29.96  HX  96
PANAMA CITY    CLOUDY    82  74  77 CALM      29.97F
APPALACHICOLA  CLOUDY    88  81  79 SW13      29.97S HX 106
$$





USA.gov is the U.S. government's official web portal to all federal, state and local government web resources and services.